Regional Weather Roundup
Issued by NWS Bismarck, ND

Current Version | Previous Version | Text Only | Print | Product List | Glossary On
Versions: 1 2 3 4 5 6 7 8 9 10 11 12 13 14 15 16 17 18 19 20 21 22 23 24 25 26 27 28 29 30 31 32 33 34 35 36 37 38 39 40 41 42 43 44 45 46 47 48 49 50
000
ASUS43 KBIS 281310
RWRBIS

NWR BROADCAST TEXT
NATIONAL WEATHER SERVICE BISMARCK ND
800 AM CDT SUN MAY 28 2017

NOTE: "FAIR" INDICATES FEW OR NO CLOUDS BELOW 12,000 FEET WITH NO
SIGNIFICANT WEATHER AND/OR OBSTRUCTIONS TO VISIBILITY.


CITY           SKY/WX    TMP DP  RH WIND       PRES   REMARKS
WILLISTON      PTSUNNY   54  38  54 CALM      29.98R
MINOT          FAIR      56  44  64 W14       29.89R
MINOT AFB      FAIR      54  46  74 NW14      29.88S
BISMARCK       FAIR      55  42  61 NW9       29.92R
DICKINSON      FAIR      51  39  63 W8        29.97R
GARRISON         N/A     52  44  74 NW13      29.91R
HETTINGER ARPT FAIR      52  40  63 NW9       30.01R
JAMESTOWN      CLOUDY    55  46  71 NW13      29.82R
HAZEN          PTSUNNY   50  43  76 W6        29.96R
LINTON           N/A     50  50 100 NW9       29.92S
MANDAN         FAIR      54  43  66 NW8       29.92S
STANLEY        FAIR      50  48  93 NW10      29.96S
TIOGA          PTSUNNY   50  45  81 NW15      29.97S
WATFORD CITY   FAIR      50  39  66 SW6       29.97R
$$

CITY           SKY/WX    TMP DP  RH WIND       PRES   REMARKS
GRAND FORKS    PTSUNNY   55  50  83 W9        29.74S
GRAND FORKS AF DRIZZLE   54  48  82 NW8       29.76R
DEVILS LAKE    CLOUDY    54  47  77 NW17G26   29.80R
FARGO          CLOUDY    54  47  77 W12       29.76R
CAVALIER       CLOUDY    52  50  93 NW15      29.74R FOG
GRAFTON        PTSUNNY   54  52  94 NW9       29.76S
GWINNER        CLOUDY    57  46  67 MISG      29.81R
LANGDON        CLOUDY    52  52 100 NW24      29.77R
ROLLA          FAIR      52  46  82 NW20G28   29.82S
$$

CITY           SKY/WX    TMP DP  RH WIND       PRES   REMARKS
ABERDEEN       PTSUNNY   52  44  74 NW9       29.85R
MOBRIDGE       FAIR      55  43  63 NW7       29.91R
BUFFALO          N/A     53  42  66 W14       29.99R
RAPID CITY     PTSUNNY   57  40  52 NW12      30.07R
GLASGOW        FAIR      53  43  68 NW8       30.05R
SIDNEY         FAIR      56  36  47 W13       29.99S
WOLF POINT     PTSUNNY   55  39  54 W10       30.01S
GLENDIVE       FAIR      57  40  52 NW12      30.04S
MILES CITY     CLOUDY    55  40  56 W3        30.08S
BAKER          PTSUNNY   55  41  59 W8        30.06S
$$

CITY           SKY/WX    TMP DP  RH WIND       PRES   REMARKS
BILLINGS       PTSUNNY   55  43  63 S9        30.19R
GREAT FALLS    PTSUNNY   49  42  77 W7        30.23R
REGINA         MOSUNNY   54  43  66 NW15G22   29.97R
ESTEVAN        PTSUNNY   48  41  76 W10       29.93S
$$





USA.gov is the U.S. government's official web portal to all federal, state and local government web resources and services.